Location: La Brionne
(46.1728°N, 1.7849°E)
Time: 17:51:13
(UTC+00:00)

Cosmos 1544 Rocket - Pass Details

Date: 01 November 2021
Orbit: 603 x 632 km, 82.5° (Epoch: 27 November)

Event Time Altitude Azimuth Distance (km) Brightness Sun altitude
Exits shadow 03:55:12 18° 155° (SSE) 1,484 5.6 -27.8°
Drops below altitude 10° 03:56:24 10° 160° (SSE) 1,951 6.2 -27.6°
Sets 03:58:38 0° 163° (SSE) 2,847 7.1 -27.3°
